QPF
0.00 0.00 0.00 0.00 0.00 0.01 0.05 0.15 0.06 0.00 0.00 0.01 0.00 0.00 0.00 0.00 0.07 0.01 0.00 0.00 0.00 0.00 0.00 0.00 0.00 0.00 0.00 0.00 0.00 0.00 0.00 0.00 0.00 0.00 0.00 0.00 0.00 0.00 0.00 0.00 0.00 0.00 0.00 0.00 0.00 0.00 0.00 0.00 0.00
0.00 0.00 0.00 0.00 0.00 0.04 0.24 0.09 0.11 0.03 0.01 0.09 0.01 0.01 0.00 0.00 0.00 0.00 0.00 0.00 0.00 0.00 0.00 0.00 0.00 0.00 0.00 0.00 0.00 0.00 0.00 0.00 0.00 0.00 0.00 0.00 0.00 0.00 0.00 0.00 0.00 0.00 0.00 0.00 0.00 0.00 0.00 0.00 0.00
0.00 0.00 0.00 0.00 0.00 0.00 0.00 0.01 0.20 0.10 0.01 0.13 0.05 0.00 0.00 0.00 0.00 0.00 0.00 0.00 0.00 0.00 0.00 0.00 0.00 0.00 0.00 0.00 0.00 0.00 0.00 0.00 0.00 0.00 0.00 0.00 0.00 0.00 0.00 0.00 0.00 0.00 0.00 0.00 0.00 0.00 0.00 0.00 0.00
0.00 0.00 0.00 0.00 0.00 0.00 0.00 0.04 0.06 0.03 0.01 0.12 0.02 0.00 0.00 0.00 0.00 0.00 0.00 0.00 0.00 0.00 0.00 0.00 0.00 0.00 0.00 0.00 0.00 0.00 0.00 0.00 0.00 0.00 0.00 0.00 0.00 0.00 0.00 0.00 0.00 0.00 0.00 0.00 0.00 0.00 0.00 0.00 0.00
0.00 0.00 0.00 0.00 0.00 0.00 0.01 0.11 0.05 0.08 0.07 0.09 0.01 0.00 0.00 0.02 0.01 0.00 0.00 0.00 0.00 0.00 0.00 0.00 0.00 0.00 0.00 0.00 0.00 0.00 0.00 0.00 0.00 0.00 0.00 0.00 0.00 0.00 0.00 0.00 0.00 0.00 0.00 0.00 0.00 0.00 0.00 0.00 0.00
0.00 0.00 0.00 0.00 0.00 0.00 0.05 0.04 0.13 0.56 0.22 0.27 0.01 0.00 0.01 0.03 0.00 0.00 0.00 0.00 0.00 0.00 0.00 0.00 0.00 0.00 0.00 0.00 0.00 0.00 0.00 0.00 0.00 0.00 0.00 0.00 0.00 0.00 0.00 0.00 0.00 0.00 0.00 0.00 0.00 0.00 0.00 0.00 0.00
0.00 0.00 0.00 0.00 0.00 0.00 0.01 0.04 0.04 0.08 0.08 0.16 0.00 0.00 0.00 0.00 0.00 0.00 0.00 0.00 0.00 0.00 0.00 0.00 0.00 0.00 0.00 0.00 0.00 0.00 0.00 0.00 0.00 0.00 0.00 0.00 0.00 0.00 0.00 0.00 0.00 0.00 0.00 0.00 0.00 0.00 0.00 0.00 0.00
0.00 0.00 0.00 0.00 0.00 0.00 0.00 0.14 0.18 0.09 0.09 0.13 0.01 0.03 0.00 0.00 0.00 0.00 0.00 0.00 0.00 0.00 0.00 0.00 0.00 0.00 0.00 0.00 0.00 0.00 0.00 0.00 0.00 0.00 0.00 0.00 0.00 0.00 0.00 0.00 0.00 0.00 0.00 0.00 0.00 0.00 0.00 0.00 0.00
0.00 0.00 0.00 0.00 0.00 0.00 0.00 0.03 0.06 0.04 0.04 0.02 0.00 0.02 0.01 0.00 0.00 0.00 0.00 0.00 0.00 0.00 0.00 0.00 0.00 0.00 0.00 0.00 0.00 0.00 0.00 0.00 0.00 0.00 0.00 0.00 0.00 0.00 0.00 0.00 0.00 0.00 0.00 0.00 0.00 0.00 0.00 0.00 0.00
0.00 0.00 0.00 0.00 0.00 0.00 0.00 0.01 0.10 0.09 0.05 0.01 0.00 0.02 0.00 0.00 0.00 0.00 0.00 0.00 0.00 0.00 0.00 0.00 0.00 0.00 0.00 0.00 0.00 0.00 0.00 0.00 0.00 0.00 0.00 0.00 0.00 0.00 0.00 0.00 0.00 0.00 0.00 0.00 0.00 0.00 0.00 0.00 0.00
0.00 0.00 0.00 0.00 0.00 0.00 0.00 0.00 0.01 0.08 0.30 0.22 0.04 0.01 0.00 0.00 0.00 0.00 0.00 0.00 0.00 0.00 0.00 0.00 0.00 0.00 0.00 0.00 0.00 0.00 0.00 0.00 0.00 0.00 0.00 0.00 0.00 0.00 0.00 0.00 0.00 0.00 0.00 0.00 0.00 0.00 0.00 0.00 0.00
0.00 0.00 0.00 0.00 0.00 0.00 0.00 0.00 0.00 0.13 0.18 0.36 0.28 0.03 0.00 0.00 0.00 0.00 0.00 0.00 0.00 0.00 0.00 0.00 0.00 0.00 0.00 0.00 0.00 0.00 0.00 0.00 0.00 0.00 0.00 0.00 0.00 0.00 0.00 0.00 0.00 0.00 0.00 0.00 0.00 0.00 0.00 0.00 0.00
0.00 0.00 0.00 0.00 0.00 0.00 0.00 0.00 0.00 0.03 0.14 0.70 0.43 0.03 0.00 0.00 0.00 0.00 0.00 0.00 0.00 0.00 0.00 0.00 0.00 0.00 0.00 0.00 0.00 0.00 0.00 0.00 0.00 0.00 0.00 0.00 0.00 0.00 0.00 0.00 0.00 0.00 0.00 0.00 0.00 0.00 0.00 0.00 0.00
0.00 0.00 0.00 0.00 0.00 0.00 0.00 0.00 0.00 0.01 0.09 0.50 0.21 0.01 0.00 0.00 0.00 0.00 0.00 0.00 0.00 0.00 0.00 0.00 0.00 0.00 0.00 0.00 0.00 0.00 0.00 0.00 0.00 0.00 0.00 0.00 0.00 0.00 0.00 0.00 0.00 0.00 0.00 0.00 0.00 0.00 0.00 0.00 0.00
0.00 0.00 0.00 0.00 0.00 0.00 0.00 0.00 0.00 0.00 0.08 0.46 0.14 0.00 0.00 0.00 0.00 0.00 0.00 0.00 0.00 0.00 0.00 0.00 0.00 0.00 0.00 0.00 0.00 0.00 0.00 0.00 0.00 0.00 0.00 0.00 0.00 0.00 0.00 0.00 0.00 0.00 0.00 0.00 0.00 0.00 0.00 0.00 0.00
0.00 0.00 0.00 0.00 0.00 0.00 0.00 0.00 0.00 0.00 0.01 0.13 0.26 0.04 0.00 0.00 0.00 0.00 0.00 0.00 0.00 0.00 0.00 0.00 0.00 0.00 0.00 0.00 0.00 0.00 0.00 0.00 0.00 0.00 0.00 0.00 0.00 0.00 0.00 0.00 0.00 0.00 0.00 0.00 0.00 0.00 0.00 0.00 0.00
0.00 0.00 0.00 0.00 0.00 0.00 0.00 0.00 0.00 0.00 0.00 0.01 0.04 0.03 0.02 0.00 0.00 0.00 0.00 0.00 0.00 0.00 0.00 0.00 0.00 0.00 0.00 0.00 0.00 0.00 0.00 0.00 0.00 0.00 0.00 0.00 0.00 0.00 0.00 0.00 0.00 0.00 0.00 0.00 0.00 0.00 0.00 0.00 0.00
0.00 0.00 0.00 0.00 0.00 0.00 0.00 0.00 0.00 0.00 0.01 0.00 0.01 0.04 0.05 0.03 0.02 0.00 0.00 0.00 0.00 0.00 0.00 0.00 0.00 0.00 0.00 0.00 0.00 0.00 0.00 0.00 0.00 0.00 0.00 0.00 0.00 0.00 0.00 0.00 0.00 0.00 0.00 0.00 0.00 0.00 0.00 0.00 0.00
0.00 0.00 0.00 0.00 0.00 0.00 0.00 0.00 0.00 0.00 0.00 0.00 0.00 0.02 0.05 0.11 0.09 0.02 0.00 0.00 0.00 0.00 0.00 0.00 0.00 0.00 0.00 0.01 0.00 0.00 0.00 0.00 0.00 0.00 0.00 0.00 0.00 0.01 0.00 0.00 0.00 0.00 0.00 0.00 0.00 0.00 0.00 0.00 0.00
0.00 0.00 0.00 0.00 0.00 0.00 0.00 0.00 0.00 0.00 0.00 0.00 0.01 0.04 0.10 0.22 0.19 0.08 0.01 0.00 0.00 0.00 0.00 0.00 0.00 0.00 0.00 0.01 0.01 0.00 0.00 0.00 0.01 0.02 0.00 0.03 0.03 0.01 0.00 0.00 0.00 0.00 0.00 0.00 0.00 0.00 0.00 0.00 0.00
0.00 0.00 0.00 0.00 0.00 0.00 0.00 0.00 0.00 0.00 0.00 0.00 0.04 0.14 0.23 0.48 0.39 0.19 0.04 0.01 0.00 0.00 0.00 0.00 0.00 0.00 0.00 0.00 0.00 0.00 0.00 0.00 0.00 0.00 0.00 0.01 0.01 0.00 0.00 0.00 0.00 0.00 0.00 0.00 0.00 0.00 0.00 0.00 0.00
0.00 0.00 0.00 0.00 0.00 0.00 0.00 0.00 0.00 0.00 0.00 0.00 0.00 0.01 0.02 0.13 0.09 0.03 0.02 0.01 0.01 0.01 0.01 0.00 0.01 0.01 0.00 0.00 0.00 0.00 0.00 0.00 0.00 0.00 0.00 0.00 0.00 0.00 0.00 0.00 0.00 0.00 0.00 0.00 0.00 0.00 0.00 0.00 0.00
0.00 0.00 0.00 0.00 0.00 0.00 0.00 0.00 0.00 0.00 0.00 0.00 0.00 0.00 0.01 0.08 0.11 0.07 0.01 0.01 0.02 0.04 0.05 0.03 0.03 0.03 0.02 0.01 0.00 0.00 0.00 0.00 0.00 0.00 0.00 0.00 0.00 0.00 0.00 0.00 0.00 0.00 0.00 0.00 0.00 0.00 0.00 0.00 0.00
0.00 0.00 0.00 0.00 0.00 0.00 0.00 0.00 0.00 0.00 0.00 0.00 0.00 0.01 0.01 0.01 0.03 0.02 0.03 0.06 0.08 0.06 0.04 0.04 0.05 0.04 0.03 0.01 0.00 0.00 0.00 0.00 0.00 0.00 0.00 0.00 0.00 0.00 0.00 0.00 0.00 0.00 0.00 0.00 0.00 0.00 0.00 0.00 0.00
0.00 0.00 0.00 0.00 0.00 0.00 0.00 0.00 0.00 0.00 0.00 0.00 0.00 0.00 0.00 0.00 0.03 0.07 0.07 0.07 0.06 0.02 0.01 0.02 0.03 0.03 0.03 0.02 0.00 0.00 0.00 0.00 0.00 0.00 0.00 0.00 0.00 0.00 0.00 0.00 0.00 0.00 0.00 0.00 0.00 0.00 0.00 0.00 0.00
0.00 0.00 0.01 0.05 0.06 0.01 0.00 0.00 0.02 0.00 0.00 0.00 0.00 0.00 0.00 0.00 0.06 0.16 0.18 0.14 0.07 0.03 0.01 0.01 0.02 0.01 0.00 0.01 0.01 0.00 0.00 0.00 0.00 0.00 0.00 0.00 0.00 0.00 0.00 0.00 0.00 0.00 0.00 0.00 0.00 0.00 0.00 0.00 0.00
0.00 0.00 0.00 0.02 0.03 0.04 0.01 0.00 0.01 0.00 0.00 0.00 0.00 0.00 0.00 0.14 0.18 0.24 0.28 0.23 0.14 0.04 0.00 0.00 0.00 0.00 0.00 0.00 0.00 0.00 0.00 0.00 0.00 0.00 0.00 0.00 0.00 0.00 0.00 0.00 0.00 0.00 0.00 0.00 0.00 0.00 0.00 0.00 0.00
0.00 0.00 0.00 0.00 0.01 0.00 0.00 0.02 0.02 0.02 0.01 0.00 0.00 0.01 0.07 0.07 0.12 0.29 0.35 0.18 0.06 0.04 0.01 0.00 0.00 0.00 0.00 0.00 0.00 0.00 0.00 0.00 0.00 0.00 0.00 0.00 0.00 0.00 0.00 0.00 0.00 0.00 0.00 0.00 0.00 0.00 0.00 0.00 0.00
0.00 0.00 0.00 0.00 0.01 0.04 0.02 0.03 0.02 0.01 0.01 0.01 0.02 0.02 0.14 0.33 0.43 0.26 0.09 0.02 0.02 0.04 0.03 0.00 0.00 0.00 0.00 0.00 0.00 0.00 0.00 0.00 0.00 0.00 0.00 0.00 0.00 0.00 0.00 0.00 0.00 0.00 0.00 0.00 0.00 0.00 0.00 0.00 0.00
0.00 0.00 0.00 0.00 0.00 0.01 0.02 0.01 0.00 0.01 0.01 0.00 0.01 0.03 0.06 0.20 0.33 0.39 0.10 0.04 0.02 0.01 0.00 0.00 0.00 0.00 0.00 0.00 0.00 0.00 0.00 0.00 0.00 0.00 0.00 0.00 0.00 0.00 0.00 0.00 0.00 0.00 0.00 0.00 0.00 0.00 0.00 0.00 0.00
MSLP
1009.66 1009.96 1010.23 1010.50 1011.41 1011.81 1013.07 1013.17 1011.93 1010.08 1009.06 1007.44 1005.18 1005.46 1007.09 1008.27 1009.20 1011.41 1012.10 1012.45 1012.91 1013.80 1014.39 1014.84 1015.27 1015.72 1016.09 1016.50 1016.85 1017.10 1017.23 1017.40 1017.60 1017.83 1018.11 1018.35 1018.49 1018.63 1018.71 1018.76 1018.81 1018.76 1018.75 1018.76 1018.74 1018.73 1018.67 1018.56 1018.44
1008.93 1009.39 1010.07 1010.14 1010.70 1011.73 1012.42 1012.43 1010.95 1009.24 1009.37 1009.44 1006.00 1006.58 1007.48 1008.75 1008.88 1010.52 1011.94 1012.57 1012.92 1013.59 1014.35 1014.85 1015.24 1015.74 1016.33 1016.69 1016.96 1017.22 1017.43 1017.66 1017.84 1018.09 1018.34 1018.55 1018.70 1018.83 1018.94 1019.00 1018.98 1018.88 1018.90 1018.95 1018.85 1018.79 1018.68 1018.64 1018.51
1008.97 1008.85 1009.74 1009.53 1009.62 1010.97 1011.58 1011.21 1011.11 1008.33 1008.02 1009.97 1007.31 1006.61 1007.47 1008.47 1009.36 1010.13 1011.58 1012.72 1012.89 1013.84 1014.41 1014.79 1015.27 1015.88 1016.38 1016.73 1017.03 1017.30 1017.54 1017.88 1018.10 1018.37 1018.57 1018.76 1018.92 1019.00 1019.05 1019.11 1019.05 1018.97 1018.95 1018.95 1018.84 1018.78 1018.73 1018.67 1018.52
1008.52 1008.62 1008.94 1008.59 1009.05 1009.73 1010.01 1010.42 1009.95 1009.43 1009.68 1009.18 1007.20 1007.33 1007.92 1008.08 1008.61 1010.07 1011.63 1012.23 1013.01 1014.06 1014.58 1014.94 1015.44 1015.89 1016.32 1016.72 1017.01 1017.37 1017.56 1017.92 1018.29 1018.53 1018.68 1018.86 1019.05 1019.14 1019.10 1019.12 1019.04 1018.98 1018.96 1018.93 1018.84 1018.70 1018.63 1018.62 1018.44
1008.31 1008.66 1008.77 1008.39 1007.86 1008.52 1008.85 1009.18 1011.31 1010.98 1010.45 1008.98 1006.73 1007.95 1008.44 1008.48 1009.16 1010.10 1011.04 1011.96 1013.06 1014.10 1014.64 1015.15 1015.46 1015.84 1016.38 1016.73 1016.92 1017.36 1017.59 1017.94 1018.31 1018.59 1018.73 1018.88 1018.97 1019.06 1019.06 1019.04 1019.03 1018.95 1018.97 1018.90 1018.83 1018.74 1018.64 1018.49 1018.35
1008.64 1008.09 1008.53 1008.28 1007.01 1007.51 1008.28 1009.23 1010.71 1011.56 1009.24 1007.95 1006.82 1007.94 1009.03 1008.98 1009.19 1009.99 1010.68 1012.08 1012.88 1013.92 1014.67 1015.08 1015.55 1015.89 1016.34 1016.66 1016.93 1017.31 1017.69 1017.94 1018.27 1018.51 1018.69 1018.84 1018.88 1018.93 1018.95 1018.96 1018.86 1018.83 1018.85 1018.85 1018.70 1018.59 1018.49 1018.33 1018.10
1008.32 1008.46 1008.15 1007.47 1006.22 1006.79 1007.92 1007.99 1011.70 1011.13 1008.88 1007.23 1006.72 1007.61 1008.99 1009.49 1009.26 1009.46 1010.67 1012.00 1012.91 1013.83 1014.66 1015.19 1015.62 1015.96 1016.38 1016.65 1016.91 1017.22 1017.60 1017.86 1018.23 1018.50 1018.65 1018.80 1018.81 1018.89 1018.89 1018.85 1018.73 1018.63 1018.62 1018.66 1018.50 1018.35 1018.20 1018.08 1018.07
1007.54 1008.02 1007.69 1006.83 1005.50 1004.91 1006.33 1006.93 1007.39 1009.84 1008.67 1006.42 1006.33 1007.03 1008.03 1008.55 1008.96 1009.64 1010.98 1012.13 1013.08 1014.11 1014.69 1015.25 1015.74 1016.08 1016.42 1016.63 1017.01 1017.19 1017.51 1017.77 1018.03 1018.27 1018.40 1018.56 1018.66 1018.81 1018.80 1018.64 1018.57 1018.42 1018.30 1018.35 1018.25 1018.17 1018.11 1017.96 1017.84
1006.90 1007.29 1006.85 1005.87 1004.68 1004.24 1003.73 1004.78 1005.18 1007.19 1008.22 1005.32 1004.87 1005.28 1006.22 1007.67 1008.62 1009.64 1010.95 1012.14 1012.96 1013.75 1014.65 1015.20 1015.58 1015.93 1016.22 1016.65 1017.02 1017.13 1017.39 1017.67 1017.91 1018.06 1018.16 1018.39 1018.58 1018.71 1018.60 1018.61 1018.52 1018.43 1018.29 1018.19 1018.15 1018.15 1018.24 1018.09 1017.63
1006.74 1006.47 1005.66 1004.59 1003.77 1003.91 1003.71 1003.92 1006.87 1007.12 1006.82 1005.47 1004.46 1004.78 1005.49 1006.81 1007.95 1009.08 1010.17 1011.63 1012.47 1013.19 1013.91 1014.58 1014.90 1015.31 1015.72 1016.11 1016.67 1017.12 1017.26 1017.49 1017.64 1017.82 1017.96 1018.20 1018.33 1018.38 1018.04 1018.28 1018.34 1018.26 1018.36 1018.27 1018.11 1018.09 1018.33 1018.07 1017.72
1006.06 1005.68 1005.10 1003.73 1003.08 1003.16 1003.68 1004.68 1004.66 1004.61 1006.42 1007.76 1006.91 1006.34 1006.58 1006.69 1007.44 1008.59 1009.63 1010.82 1011.77 1012.24 1012.92 1013.61 1014.02 1014.42 1014.89 1015.32 1016.19 1016.68 1016.88 1017.13 1017.42 1017.63 1017.58 1017.95 1017.81 1017.73 1017.81 1018.11 1018.11 1018.16 1018.45 1018.38 1018.14 1018.31 1018.19 1018.17 1017.89
1005.47 1004.82 1004.27 1003.38 1002.66 1002.65 1003.04 1003.97 1004.30 1005.79 1007.87 1008.31 1007.24 1008.02 1007.71 1007.40 1007.18 1008.01 1009.12 1010.31 1011.30 1011.94 1012.23 1012.69 1013.28 1013.81 1014.15 1014.74 1015.34 1015.66 1016.01 1016.45 1016.78 1017.05 1017.25 1017.36 1017.77 1017.61 1017.75 1017.81 1017.93 1018.15 1018.17 1018.42 1018.41 1018.47 1018.33 1018.15 1017.96
1004.84 1004.33 1003.40 1002.77 1002.52 1002.48 1002.40 1002.97 1004.32 1006.41 1007.63 1008.04 1010.99 1009.65 1008.63 1008.06 1007.25 1007.61 1008.95 1009.88 1010.77 1011.62 1012.14 1012.38 1012.68 1013.17 1013.92 1014.17 1014.56 1015.04 1015.24 1015.83 1016.23 1016.64 1017.10 1017.50 1017.81 1018.04 1017.88 1017.95 1018.24 1018.46 1018.31 1018.31 1018.13 1018.24 1018.31 1018.33 1018.28
1004.13 1003.58 1003.00 1002.45 1002.26 1002.33 1002.80 1003.76 1003.98 1007.01 1006.91 1008.17 1008.48 1009.58 1008.90 1008.72 1007.94 1008.19 1008.75 1009.67 1010.29 1011.37 1011.93 1012.35 1012.57 1013.22 1013.44 1014.10 1014.36 1014.70 1015.14 1015.61 1016.33 1016.91 1017.26 1017.54 1018.04 1018.17 1018.15 1018.20 1018.54 1018.65 1018.60 1018.60 1018.68 1018.79 1018.83 1018.71 1018.68
1003.85 1003.68 1002.97 1002.46 1002.23 1002.25 1002.52 1003.19 1004.19 1006.06 1007.22 1007.24 1007.04 1008.10 1008.22 1007.65 1007.68 1008.44 1008.72 1009.39 1010.04 1011.01 1011.73 1012.19 1012.55 1012.97 1013.59 1014.09 1014.20 1014.54 1014.87 1015.74 1016.58 1017.14 1017.45 1017.68 1018.18 1018.49 1018.56 1018.71 1018.83 1019.07 1018.97 1019.01 1019.18 1019.24 1019.25 1019.24 1019.00
1004.42 1003.97 1003.44 1002.33 1002.15 1001.90 1002.55 1003.34 1004.75 1005.65 1006.11 1007.29 1006.99 1006.64 1007.06 1006.87 1007.68 1008.34 1009.04 1009.48 1009.82 1010.72 1011.69 1012.27 1012.60 1013.05 1013.74 1014.18 1014.20 1014.73 1015.16 1015.84 1016.62 1017.21 1017.63 1018.09 1018.47 1018.70 1018.90 1019.10 1019.38 1019.40 1019.51 1019.82 1019.94 1020.16 1020.09 1019.96 1019.73
1004.79 1004.62 1003.64 1002.36 1001.61 1001.60 1001.83 1002.58 1003.45 1005.33 1005.98 1006.57 1006.45 1005.51 1006.73 1007.40 1007.88 1008.65 1009.59 1010.36 1010.35 1011.05 1011.64 1012.31 1012.81 1013.18 1013.92 1014.41 1014.73 1015.02 1015.55 1016.27 1017.06 1017.56 1018.14 1018.65 1018.92 1019.07 1019.36 1019.42 1019.65 1019.84 1020.15 1020.36 1020.48 1020.54 1020.62 1020.69 1020.44
1005.16 1004.59 1003.77 1002.79 1001.72 1001.12 1001.78 1001.84 1002.13 1004.01 1004.48 1005.34 1006.55 1006.81 1007.01 1007.62 1008.13 1008.76 1009.58 1010.31 1010.75 1011.42 1011.94 1012.56 1012.79 1013.16 1013.78 1014.66 1015.33 1015.64 1016.09 1017.03 1017.61 1018.20 1018.74 1019.15 1019.43 1019.60 1019.58 1019.79 1020.08 1020.26 1020.56 1020.80 1020.69 1020.73 1020.63 1020.87 1020.99
1004.30 1003.98 1003.38 1002.08 1001.00 1001.08 1000.92 1000.75 1001.26 1001.50 1002.94 1003.80 1004.22 1005.22 1006.34 1007.99 1008.35 1008.69 1009.13 1010.29 1010.97 1011.78 1012.52 1013.00 1013.12 1013.31 1013.82 1014.88 1015.71 1016.18 1016.79 1017.62 1018.23 1018.61 1019.09 1019.60 1019.97 1020.09 1020.14 1020.26 1020.55 1020.74 1021.00 1021.27 1021.26 1020.95 1020.80 1020.87 1020.77
1003.56 1003.33 1002.68 1001.76 1000.85 1000.73 1000.70 1000.76 1000.90 1000.76 1001.34 1002.05 1003.27 1004.80 1006.51 1008.17 1009.24 1009.61 1009.58 1009.97 1011.25 1012.14 1012.35 1013.32 1013.79 1013.74 1014.26 1014.75 1015.60 1016.08 1016.97 1018.11 1018.58 1019.08 1019.57 1019.99 1020.52 1020.63 1020.58 1020.73 1020.95 1021.13 1021.42 1021.55 1021.58 1021.44 1021.44 1021.34 1021.01
1002.67 1002.63 1002.23 1001.81 1001.18 1000.82 1001.13 1000.99 1000.79 1000.44 1000.98 1001.91 1003.01 1004.63 1006.04 1007.01 1008.46 1009.73 1010.33 1011.21 1011.78 1012.15 1012.59 1013.17 1014.08 1014.25 1014.68 1015.21 1015.69 1016.53 1017.44 1018.45 1019.32 1019.84 1020.14 1020.49 1020.80 1021.03 1021.00 1021.13 1021.33 1021.57 1021.75 1022.02 1022.02 1021.81 1021.71 1021.91 1021.73
1002.49 1002.04 1001.97 1002.11 1002.21 1002.08 1001.65 1002.03 1001.60 1001.31 1001.43 1002.02 1003.14 1003.90 1004.60 1005.65 1006.58 1007.19 1008.92 1010.00 1011.04 1012.18 1013.00 1013.30 1014.34 1014.76 1014.85 1015.58 1015.75 1016.38 1017.27 1018.32 1019.22 1020.04 1020.51 1020.73 1020.95 1021.13 1021.30 1021.42 1021.60 1021.84 1022.14 1022.38 1022.33 1022.12 1022.02 1021.87 1022.28
1004.47 1003.13 1002.11 1002.37 1002.83 1003.03 1003.07 1003.62 1002.96 1002.53 1003.12 1003.63 1003.68 1003.59 1003.57 1003.70 1004.26 1005.71 1006.59 1008.16 1009.97 1011.60 1013.20 1013.47 1014.18 1014.89 1015.21 1015.41 1015.55 1016.44 1017.44 1018.27 1019.29 1020.20 1020.72 1021.20 1021.30 1021.33 1021.51 1021.83 1021.99 1022.25 1022.53 1022.68 1022.67 1022.53 1022.40 1022.43 1022.74
1005.02 1004.43 1003.37 1003.21 1003.85 1004.55 1005.11 1006.19 1006.26 1007.71 1008.71 1006.99 1006.62 1006.68 1004.63 1002.59 1002.89 1003.78 1006.01 1007.57 1009.12 1011.40 1012.81 1013.60 1014.32 1015.43 1015.96 1015.87 1015.93 1016.35 1017.20 1018.43 1019.49 1020.27 1020.96 1021.33 1021.61 1021.80 1021.94 1022.18 1022.50 1022.68 1022.85 1022.99 1023.00 1022.83 1022.82 1022.92 1023.10
1005.99 1006.45 1007.24 1006.67 1006.54 1006.90 1008.08 1008.49 1010.57 1010.06 1010.08 1009.32 1007.66 1006.63 1004.08 1002.86 1003.20 1003.88 1006.07 1007.76 1009.34 1011.47 1012.41 1013.18 1014.47 1015.86 1016.14 1016.34 1016.80 1017.10 1017.47 1018.27 1019.26 1020.02 1020.75 1021.51 1022.02 1022.25 1022.55 1022.70 1022.97 1023.04 1023.03 1023.07 1023.20 1023.24 1023.32 1023.38 1023.60
1007.43 1008.37 1010.86 1010.79 1010.75 1010.69 1009.99 1009.52 1010.26 1010.74 1010.02 1008.87 1008.15 1007.68 1003.45 1001.22 1003.47 1004.56 1006.86 1008.30 1010.12 1011.85 1012.72 1013.83 1014.67 1015.94 1016.49 1016.97 1017.23 1017.82 1018.23 1018.69 1019.44 1019.96 1020.42 1021.59 1022.01 1022.32 1022.56 1023.01 1023.25 1023.30 1023.32 1023.43 1023.43 1023.54 1023.67 1023.80 1024.02
1008.64 1009.03 1009.16 1010.67 1012.46 1011.95 1011.30 1009.71 1010.06 1011.03 1010.19 1010.65 1009.96 1009.59 1009.20 1008.06 1006.80 1006.65 1006.84 1008.62 1010.94 1011.40 1012.51 1013.87 1015.05 1015.95 1016.83 1017.49 1017.69 1018.43 1019.01 1019.20 1019.83 1020.35 1020.88 1021.64 1022.17 1022.31 1022.62 1023.00 1023.45 1023.54 1023.58 1023.71 1023.85 1024.13 1024.20 1024.24 1024.35
1009.35 1009.50 1009.76 1010.81 1012.10 1011.92 1011.15 1012.08 1013.44 1013.35 1013.25 1012.49 1012.07 1012.26 1011.73 1011.58 1011.02 1010.23 1008.38 1009.98 1010.95 1012.55 1013.66 1014.50 1015.10 1016.20 1016.96 1017.78 1018.50 1019.20 1019.36 1019.77 1020.31 1020.57 1021.34 1021.79 1022.38 1022.59 1022.84 1023.26 1023.67 1023.83 1024.00 1024.14 1024.30 1024.61 1024.60 1024.73 1024.86
1010.04 1010.41 1010.98 1011.49 1012.21 1013.39 1013.76 1014.31 1014.65 1014.80 1014.60 1013.77 1013.47 1013.09 1013.25 1013.71 1013.85 1014.00 1011.85 1011.99 1013.30 1014.69 1014.92 1015.01 1015.94 1017.03 1018.04 1018.84 1019.43 1019.58 1020.01 1020.61 1020.95 1021.16 1021.63 1021.94 1022.38 1022.63 1023.13 1023.44 1023.86 1024.21 1024.35 1024.43 1024.69 1024.84 1024.98 1025.05 1025.18
1011.96 1012.96 1013.21 1013.82 1014.27 1014.38 1014.49 1015.20 1015.57 1015.32 1015.43 1015.10 1014.65 1013.88 1014.25 1014.88 1015.59 1016.21 1014.32 1014.84 1015.04 1015.00 1015.93 1017.05 1017.48 1018.12 1019.25 1019.90 1019.55 1020.52 1020.76 1021.04 1021.61 1022.01 1022.12 1022.12 1022.56 1022.76 1023.10 1023.42 1023.97 1024.31 1024.53 1024.61 1024.87 1024.97 1025.06 1025.16 1025.30
Thickness
5823 5818 5816 5804 5765 5758 5742 5750 5771 5780 5783 5814 5841 5831 5811 5802 5792 5763 5803 5803 5801 5793 5787 5783 5780 5777 5774 5770 5767 5765 5764 5763 5761 5758 5755 5753 5751 5749 5748 5748 5747 5747 5748 5747 5747 5746 5746 5748 5749
5826 5821 5809 5791 5761 5740 5745 5769 5775 5797 5794 5794 5832 5825 5812 5793 5816 5806 5797 5802 5799 5794 5787 5783 5781 5777 5772 5769 5766 5763 5761 5759 5758 5755 5753 5751 5749 5748 5747 5746 5746 5747 5747 5746 5747 5747 5748 5748 5749
5822 5822 5790 5775 5767 5741 5749 5772 5772 5805 5816 5787 5813 5831 5816 5801 5813 5814 5805 5800 5798 5791 5786 5783 5780 5775 5770 5768 5764 5761 5760 5756 5754 5752 5750 5748 5747 5747 5746 5746 5746 5747 5747 5747 5747 5748 5749 5749 5749
5815 5808 5797 5772 5766 5772 5774 5781 5788 5788 5794 5793 5817 5801 5815 5826 5819 5816 5805 5804 5797 5789 5783 5781 5777 5773 5770 5767 5764 5760 5759 5755 5752 5750 5748 5747 5745 5745 5746 5746 5747 5747 5748 5748 5748 5749 5750 5749 5750
5813 5794 5766 5769 5781 5780 5791 5796 5773 5772 5781 5781 5818 5794 5798 5817 5821 5815 5809 5804 5794 5787 5782 5777 5775 5772 5768 5765 5764 5760 5758 5754 5751 5748 5747 5746 5746 5745 5746 5746 5747 5747 5747 5748 5748 5749 5750 5751 5752
5783 5792 5759 5759 5786 5798 5794 5785 5764 5759 5780 5770 5809 5799 5792 5815 5814 5811 5813 5799 5796 5787 5780 5776 5773 5770 5767 5764 5762 5759 5756 5754 5751 5748 5747 5746 5746 5746 5746 5746 5748 5748 5748 5747 5749 5750 5751 5753 5754
5781 5769 5762 5773 5789 5795 5786 5792 5755 5761 5782 5780 5820 5793 5794 5799 5811 5815 5811 5798 5793 5784 5779 5775 5771 5768 5764 5763 5761 5758 5755 5754 5750 5747 5747 5746 5746 5745 5746 5746 5748 5750 5750 5748 5750 5751 5754 5754 5754
5795 5778 5767 5780 5792 5796 5805 5795 5785 5769 5780 5825 5827 5795 5788 5805 5812 5809 5803 5794 5787 5781 5777 5773 5770 5767 5763 5761 5758 5757 5754 5752 5750 5748 5748 5746 5746 5745 5745 5748 5749 5751 5752 5750 5751 5752 5753 5756 5757
5808 5768 5765 5779 5796 5804 5838 5814 5789 5794 5783 5826 5829 5822 5823 5819 5814 5803 5794 5790 5784 5782 5776 5772 5769 5765 5763 5759 5755 5755 5752 5751 5749 5748 5747 5746 5746 5745 5746 5747 5748 5748 5751 5752 5751 5752 5751 5753 5757
5785 5766 5779 5809 5817 5805 5824 5826 5775 5773 5790 5803 5824 5831 5828 5818 5810 5801 5791 5787 5784 5781 5779 5776 5772 5768 5765 5761 5756 5753 5752 5751 5750 5749 5749 5747 5746 5746 5748 5748 5748 5749 5749 5750 5751 5752 5750 5752 5756
5789 5777 5797 5815 5825 5821 5817 5811 5816 5804 5745 5767 5789 5805 5810 5810 5805 5801 5797 5790 5787 5789 5785 5781 5778 5773 5768 5765 5759 5754 5753 5751 5750 5749 5750 5747 5748 5749 5749 5747 5747 5750 5747 5749 5750 5749 5750 5750 5752
5779 5799 5805 5817 5827 5820 5815 5808 5802 5798 5776 5781 5766 5795 5802 5804 5803 5802 5798 5792 5788 5786 5787 5785 5781 5777 5773 5768 5763 5760 5757 5755 5752 5751 5750 5750 5749 5750 5749 5748 5749 5747 5747 5746 5747 5746 5747 5748 5750
5787 5795 5810 5819 5819 5818 5825 5812 5797 5787 5782 5780 5734 5777 5790 5799 5802 5803 5800 5796 5791 5784 5783 5784 5781 5778 5773 5769 5767 5764 5762 5758 5755 5753 5749 5748 5745 5744 5745 5746 5744 5743 5745 5745 5748 5746 5746 5745 5745
5797 5800 5805 5815 5813 5815 5809 5797 5797 5774 5783 5775 5771 5770 5784 5784 5793 5796 5797 5792 5790 5785 5782 5782 5777 5775 5772 5768 5765 5764 5761 5759 5753 5748 5747 5745 5742 5741 5742 5742 5740 5740 5742 5742 5741 5740 5739 5740 5740
5796 5782 5795 5803 5808 5806 5816 5794 5787 5781 5777 5782 5790 5784 5791 5791 5795 5791 5794 5792 5790 5785 5781 5779 5772 5773 5768 5765 5762 5761 5758 5755 5748 5745 5742 5741 5737 5737 5737 5736 5735 5734 5735 5735 5734 5734 5734 5733 5735
5770 5776 5757 5791 5802 5812 5802 5768 5775 5780 5779 5770 5786 5795 5793 5794 5786 5788 5789 5786 5785 5779 5773 5773 5772 5767 5761 5759 5757 5754 5752 5748 5744 5740 5737 5734 5731 5731 5731 5730 5727 5728 5729 5725 5725 5723 5724 5725 5726
5756 5735 5752 5772 5799 5797 5793 5777 5798 5775 5768 5760 5775 5791 5788 5779 5780 5781 5778 5774 5776 5774 5768 5766 5765 5759 5754 5751 5749 5746 5743 5740 5736 5733 5727 5724 5722 5722 5723 5723 5720 5720 5719 5718 5716 5717 5716 5716 5716
5729 5733 5746 5754 5785 5791 5777 5778 5803 5777 5775 5763 5763 5766 5771 5768 5771 5775 5772 5770 5769 5765 5760 5758 5759 5754 5751 5743 5738 5736 5733 5729 5727 5722 5715 5715 5713 5712 5716 5714 5713 5712 5711 5709 5709 5709 5711 5709 5706
5750 5747 5744 5770 5795 5778 5777 5785 5791 5807 5788 5778 5784 5778 5774 5758 5764 5772 5773 5765 5761 5757 5751 5748 5748 5746 5743 5734 5728 5725 5721 5718 5716 5713 5708 5705 5703 5703 5706 5705 5703 5702 5701 5698 5698 5700 5703 5702 5701
5748 5740 5745 5766 5787 5781 5773 5774 5791 5799 5795 5792 5786 5777 5761 5749 5748 5748 5756 5758 5751 5746 5745 5738 5735 5736 5731 5728 5723 5721 5715 5708 5704 5700 5699 5697 5692 5691 5693 5694 5692 5692 5689 5686 5686 5686 5689 5688 5690
5751 5741 5744 5746 5773 5777 5766 5756 5772 5796 5797 5792 5782 5773 5766 5753 5746 5731 5734 5729 5730 5735 5734 5730 5725 5724 5721 5717 5714 5708 5704 5696 5689 5688 5687 5684 5682 5681 5683 5682 5681 5681 5678 5673 5673 5674 5676 5672 5673
5730 5761 5757 5750 5739 5718 5769 5715 5753 5776 5781 5787 5770 5768 5771 5764 5761 5756 5741 5734 5732 5724 5719 5719 5713 5710 5711 5707 5705 5701 5695 5688 5685 5680 5675 5673 5672 5672 5672 5670 5670 5668 5665 5662 5661 5662 5663 5664 5657
5709 5737 5748 5747 5732 5732 5734 5708 5731 5770 5764 5767 5767 5766 5767 5769 5770 5761 5758 5747 5734 5719 5706 5706 5704 5698 5698 5698 5699 5691 5684 5680 5676 5670 5664 5661 5662 5661 5661 5658 5657 5655 5653 5651 5650 5650 5651 5650 5645
5719 5715 5728 5733 5724 5686 5722 5708 5723 5699 5691 5714 5723 5720 5743 5765 5769 5768 5754 5740 5730 5709 5699 5697 5691 5684 5681 5684 5685 5683 5676 5669 5664 5658 5652 5651 5650 5650 5648 5646 5644 5642 5640 5638 5638 5638 5637 5635 5633
5703 5684 5646 5656 5665 5670 5688 5685 5648 5681 5687 5694 5709 5718 5747 5754 5754 5749 5733 5725 5716 5699 5695 5691 5680 5670 5670 5670 5668 5666 5664 5660 5654 5648 5645 5640 5638 5636 5633 5631 5629 5629 5627 5626 5625 5623 5622 5620 5617
5681 5661 5624 5611 5618 5626 5666 5669 5653 5672 5685 5693 5700 5702 5743 5769 5749 5732 5712 5703 5694 5684 5680 5673 5669 5659 5657 5655 5655 5650 5647 5646 5641 5640 5636 5630 5627 5624 5621 5616 5614 5613 5613 5612 5611 5609 5608 5606 5603
5658 5645 5667 5625 5627 5620 5643 5678 5671 5663 5674 5668 5679 5682 5684 5696 5707 5698 5690 5680 5680 5663 5661 5661 5654 5651 5646 5641 5640 5635 5631 5630 5627 5624 5620 5617 5615 5609 5605 5602 5600 5599 5598 5596 5595 5592 5590 5590 5588
5651 5659 5631 5632 5598 5610 5643 5633 5620 5628 5632 5642 5649 5649 5659 5660 5667 5677 5668 5663 5659 5653 5653 5647 5644 5634 5631 5625 5623 5618 5617 5613 5610 5609 5603 5600 5597 5594 5593 5588 5584 5583 5581 5579 5577 5574 5573 5571 5569
5630 5619 5625 5622 5614 5595 5588 5605 5608 5606 5610 5623 5631 5642 5640 5637 5640 5635 5637 5643 5641 5633 5635 5634 5625 5616 5606 5604 5601 5600 5597 5593 5593 5592 5589 5586 5583 5580 5577 5573 5570 5567 5565 5562 5559 5557 5555 5553 5550
5619 5596 5600 5585 5582 5592 5584 5581 5583 5596 5601 5607 5614 5627 5625 5619 5612 5605 5611 5620 5618 5618 5609 5600 5597 5592 5582 5581 5588 5580 5579 5577 5572 5569 5570 5571 5568 5565 5562 5558 5553 5550 5547 5545 5542 5539 5538 5535 5532